,,Stat6,,Stat2,,Stat8,,Stat9,,Stat10,,Wind1,,Wind1,
time,status,PA1M_AVG,status,PR1M_SUM,status,RH1M_AVG,status,SR1M_AVG,status,TA1M_AVG,status,W1dAve1m,status,W1sAve1m,
2007-07-13, 00:00:00,VALID,916.846,VALID,0.2,VALID,100,VALID,-0.0679233,VALID,20.7472,VALID,61,VALID,0.0240091,
2007-07-13, 00:01:00,VALID,916.838,VALID,0.2,VALID,100,VALID,-0.0849042,VALID,20.7442,VALID,61,VALID,0.0158026,
2007-07-13, 00:02:00,VALID,916.829,VALID,0.2,VALID,100,VALID,-0.0679233,VALID,20.731,VALID,61,VALID,0.115513,
2007-07-13, 00:03:00,VALID,916.834,VALID,0.2,VALID,100,VALID,-0.0849042,VALID,20.7183,VALID,71,VALID,0.397204,
2007-07-13, 00:04:00,VALID,916.838,VALID,0,VALID,100,VALID,-0.101885,VALID,20.7153,VALID,100,VALID,0.577172,
2007-07-13, 00:05:00,VALID,916.839,VALID,0.2,VALID,100,VALID,-0.101885,VALID,20.6861,VALID,135,VALID,0.577753,
2007-07-13, 00:06:00,VALID,916.824,VALID,0,VALID,100,VALID,-0.101885,VALID,20.6728,VALID,156,VALID,0.473722,
2007-07-13, 00:07:00,VALID,916.824,VALID,0.2,VALID,100,VALID,-0.0849042,VALID,20.6598,VALID,156,VALID,0.168857,
2007-07-13, 00:08:00,VALID,916.819,VALID,0.2,VALID,100,VALID,-0.0509425,VALID,20.6563,VALID,156,VALID,0.405729,
2007-07-13, 00:09:00,VALID,916.825,VALID,0,VALID,100,VALID,-0.0509425,VALID,20.6628,VALID,156,VALID,0.420945,
2007-07-13, 00:10:00,VALID,916.803,VALID,0.2,VALID,100,VALID,-0.0339617,VALID,20.6593,VALID,156,VALID,0.407738,
2007-07-13, 00:11:00,VALID,916.819,VALID,0,VALID,100,VALID,-0.0679233,VALID,20.6628,VALID,150,VALID,0.412064,
2007-07-13, 00:12:00,VALID,916.816,VALID,0.2,VALID,100,VALID,-0.101885,VALID,20.6498,VALID,141,VALID,0.72237,
2007-07-13, 00:13:00,VALID,916.823,VALID,0,VALID,100,VALID,-0.118866,VALID,20.6598,VALID,158,VALID,0.761523,
2007-07-13, 00:14:00,VALID,916.819,VALID,0,VALID,100,VALID,-0.0339617,VALID,20.6501,VALID,154,VALID,0.891387,
2007-07-13, 00:15:00,VALID,916.807,VALID,0,VALID,100,VALID,-0.0509425,VALID,20.6371,VALID,162,VALID,0.936047,
2007-07-13, 00:16:00,VALID,916.782,VALID,0.2,VALID,100,VALID,-0.0849042,VALID,20.6309,VALID,136,VALID,0.539807,
2007-07-13, 00:17:00,VALID,916.771,VALID,0,VALID,100,VALID,-0.0849042,VALID,20.6179,VALID,167,VALID,0.60061,
2007-07-13, 00:18:00,VALID,916.746,VALID,0.2,VALID,100,VALID,-0.0849042,VALID,20.6017,VALID,185,VALID,0.654948,
2007-07-13, 00:19:00,VALID,916.71,VALID,0,VALID,100,VALID,-0.0679233,VALID,20.5849,VALID,217,VALID,0.806141,
2007-07-13, 00:20:00,VALID,916.694,VALID,0.2,VALID,100,VALID,-0.0509425,VALID,20.5717,VALID,268,VALID,0.508194,
2007-07-13, 00:21:00,VALID,916.673,VALID,0,VALID,100,VALID,-0.0679233,VALID,20.5684,VALID,192,VALID,0.644259,
2007-07-13, 00:22:00,VALID,916.67,VALID,0.2,VALID,100,VALID,-0.0679233,VALID,20.5787,VALID,187,VALID,0.407031,
2007-07-13, 00:23:00,VALID,916.652,VALID,0.2,VALID,100,VALID,-0.0679233,VALID,20.5849,VALID,158,VALID,0.864644,
2007-07-13, 00:24:00,VALID,916.603,VALID,0.2,VALID,100,VALID,-0.0679233,VALID,20.5849,VALID,150,VALID,0.265803,
2007-07-13, 00:25:00,VALID,916.565,VALID,0.2,VALID,100,VALID,-0.0339617,VALID,20.5979,VALID,148,VALID,0.0605469,
2007-07-13, 00:26:00,VALID,916.552,VALID,0,VALID,100,VALID,-0.0679233,VALID,20.6079,VALID,148,VALID,0.010831,
2007-07-13, 00:27:00,VALID,916.549,VALID,0,VALID,100,VALID,-0.0169808,VALID,20.6141,VALID,158,VALID,0.166481,
2007-07-13, 00:28:00,VALID,916.556,VALID,0,VALID,100,VALID,-0.0679233,VALID,20.5812,VALID,233,VALID,0.584794,
2007-07-13, 00:29:00,VALID,916.547,VALID,0,VALID,100,VALID,-0.0679233,VALID,20.559,VALID,257,VALID,0.285417,
2007-07-13, 00:30:00,VALID,916.555,VALID,0,VALID,100,VALID,-0.0509425,VALID,20.5462,VALID,257,VALID,0.00457317,
2007-07-13, 00:31:00,VALID,916.535,VALID,0,VALID,100,VALID,-0.0169808,VALID,20.5495,VALID,283,VALID,0.352896,
2007-07-13, 00:32:00,VALID,916.525,VALID,0.2,VALID,100,VALID,-0.0339617,VALID,20.5552,VALID,24,VALID,0.966694,
2007-07-13, 00:33:00,VALID,916.526,VALID,0,VALID,100,VALID,-0.0339617,VALID,20.5852,VALID,39,VALID,1.02969,
2007-07-13, 00:34:00,VALID,916.518,VALID,0,VALID,100,VALID,-0.0679233,VALID,20.5979,VALID,30,VALID,0.930575,
2007-07-13, 00:35:00,VALID,916.522,VALID,0,VALID,100,VALID,-0.0679233,VALID,20.5849,VALID,25,VALID,1.09055,
2007-07-13, 00:36:00,VALID,916.511,VALID,0,VALID,100,VALID,-0.0849042,VALID,20.556,VALID,31,VALID,0.837798,
2007-07-13, 00:37:00,VALID,916.519,VALID,0,VALID,100,VALID,-0.0339617,VALID,20.5498,VALID,20,VALID,0.397017,
2007-07-13, 00:38:00,VALID,916.518,VALID,0,VALID,100,VALID,-0.0169808,VALID,20.5525,VALID,20,VALID,0.275073,
2007-07-13, 00:39:00,VALID,916.532,VALID,0,VALID,100,VALID,-0.0679233,VALID,20.5487,VALID,20,VALID,0.0553819,
2007-07-13, 00:40:00,VALID,916.526,VALID,0,VALID,100,VALID,-0.0169808,VALID,20.5787,VALID,20,VALID,0.193859,
2007-07-13, 00:41:00,VALID,916.535,VALID,0,VALID,100,VALID,-0.0849042,VALID,20.5722,VALID,29,VALID,0.536685,
2007-07-13, 00:42:00,VALID,916.537,VALID,0,VALID,100,VALID,-0.0339617,VALID,20.5749,VALID,51,VALID,0.862351,
2007-07-13, 00:43:00,VALID,916.531,VALID,0,VALID,100,VALID,-0.0509425,VALID,20.52,VALID,61,VALID,0.839753,
2007-07-13, 00:44:00,VALID,916.477,VALID,0,VALID,100,VALID,-0.0339617,VALID,20.4681,VALID,41,VALID,1.86178,
2007-07-13, 00:45:00,VALID,916.448,VALID,0,VALID,100,VALID,-0.0679233,VALID,20.4324,VALID,32,VALID,2.40139,
2007-07-13, 00:46:00,VALID,916.467,VALID,0.2,VALID,100,VALID,-0.0509425,VALID,20.4327,VALID,30,VALID,2.50688,
2007-07-13, 00:47:00,VALID,916.48,VALID,0,VALID,100,VALID,-0.0849042,VALID,20.4424,VALID,25,VALID,1.60404,
2007-07-13, 00:48:00,VALID,916.511,VALID,0,VALID,100,VALID,-0.0849042,VALID,20.4294,VALID,2,VALID,1.7115,
2007-07-13, 00:49:00,VALID,916.538,VALID,0,VALID,100,VALID,-0.0849042,VALID,20.4227,VALID,326,VALID,1.91482,
2007-07-13, 00:50:00,VALID,916.554,VALID,0,VALID,100,VALID,-0.0849042,VALID,20.4132,VALID,336,VALID,1.42054,
2007-07-13, 00:51:00,VALID,916.571,VALID,0,VALID,100,VALID,-0.0849042,VALID,20.4134,VALID,266,VALID,0.459794,
2007-07-13, 00:52:00,VALID,916.572,VALID,0,VALID,100,VALID,-0.0679233,VALID,20.4035,VALID,216,VALID,0.490039,
2007-07-13, 00:53:00,VALID,916.561,VALID,0,VALID,100,VALID,-0.0679233,VALID,20.4002,VALID,217,VALID,0.13244,
2007-07-13, 00:54:00,VALID,916.55,VALID,0,VALID,100,VALID,-0.0169808,VALID,20.4035,VALID,217,VALID,0,
2007-07-13, 00:55:00,VALID,916.549,VALID,0,VALID,100,VALID,-0.0509425,VALID,20.4029,VALID,217,VALID,0.00111607,
2007-07-13, 00:56:00,VALID,916.534,VALID,0,VALID,100,VALID,-0.0339617,VALID,20.4162,VALID,217,VALID,0,
2007-07-13, 00:57:00,VALID,916.512,VALID,0,VALID,100,VALID,-0.0169808,VALID,20.4262,VALID,217,VALID,0,
2007-07-13, 00:58:00,VALID,916.48,VALID,0,VALID,100,VALID,-0.0679233,VALID,20.4419,VALID,174,VALID,0.198475,
2007-07-13, 00:59:00,VALID,916.448,VALID,0,VALID,100,VALID,-0.0169808,VALID,20.4379,VALID,48,VALID,0.847565,
2007-07-13, 01:00:00,VALID,916.431,VALID,0,VALID,100,VALID,-0.0339617,VALID,20.4708,VALID,35,VALID,1.11719,
2007-07-13, 01:01:00,VALID,916.394,VALID,0,VALID,100,VALID,-0.0509425,VALID,20.4841,VALID,32,VALID,0.986328,
2007-07-13, 01:02:00,VALID,916.383,VALID,0,VALID,100,VALID,-0.0169808,VALID,20.4554,VALID,33,VALID,0.997954,
2007-07-13, 01:03:00,VALID,916.377,VALID,0,VALID,100,VALID,-0.0339617,VALID,20.4424,VALID,29,VALID,0.852325,
2007-07-13, 01:04:00,VALID,916.381,VALID,0,VALID,100,VALID,-0.0509425,VALID,20.4164,VALID,35,VALID,1.11701,
2007-07-13, 01:05:00,VALID,916.376,VALID,0,VALID,100,VALID,-0.0849042,VALID,20.397,VALID,36,VALID,1.17552,
2007-07-13, 01:06:00,VALID,916.373,VALID,0,VALID,100,VALID,-0.0339617,VALID,20.3837,VALID,37,VALID,1.0625,
2007-07-13, 01:07:00,VALID,916.373,VALID,0,VALID,100,VALID,-0.0169808,VALID,20.3802,VALID,30,VALID,0.809775,
2007-07-13, 01:08:00,VALID,916.391,VALID,0,VALID,100,VALID,-0.0339617,VALID,20.3605,VALID,19,VALID,1.02493,
2007-07-13, 01:09:00,VALID,916.401,VALID,0,VALID,100,VALID,-0.0509425,VALID,20.3508,VALID,24,VALID,0.824396,
2007-07-13, 01:10:00,VALID,916.409,VALID,0,VALID,100,VALID,-0.0169808,VALID,20.3613,VALID,34,VALID,0.694568,
2007-07-13, 01:11:00,VALID,916.406,VALID,0,VALID,100,VALID,-0.101885,VALID,20.3645,VALID,34,VALID,0.342988,
2007-07-13, 01:12:00,VALID,916.421,VALID,0,VALID,100,VALID,-0.0849042,VALID,20.3678,VALID,60,VALID,0.356076,
2007-07-13, 01:13:00,VALID,916.42,VALID,0,VALID,100,VALID,-0.0169808,VALID,20.3613,VALID,62,VALID,0.176639,
2007-07-13, 01:14:00,VALID,916.395,VALID,0,VALID,100,VALID,-0.0339617,VALID,20.3545,VALID,62,VALID,0.336496,
2007-07-13, 01:15:00,VALID,916.363,VALID,0,VALID,100,VALID,-0.0339617,VALID,20.3283,VALID,54,VALID,0.670785,
2007-07-13, 01:16:00,VALID,916.348,VALID,0,VALID,100,VALID,-0.0169808,VALID,20.334,VALID,36,VALID,0.826705,
2007-07-13, 01:17:00,VALID,916.326,VALID,0,VALID,100,VALID,0,VALID,20.351,VALID,41,VALID,0.788336,
2007-07-13, 01:18:00,VALID,916.311,VALID,0,VALID,100,VALID,-0.0509425,VALID,20.3805,VALID,39,VALID,0.862038,
2007-07-13, 01:19:00,VALID,916.294,VALID,0,VALID,100,VALID,0,VALID,20.3408,VALID,29,VALID,1.04799,
2007-07-13, 01:20:00,VALID,916.295,VALID,0,VALID,100,VALID,-0.0339617,VALID,20.3375,VALID,23,VALID,0.94401,
2007-07-13, 01:21:00,VALID,916.284,VALID,0,VALID,100,VALID,0,VALID,20.3545,VALID,30,VALID,1.40933,
2007-07-13, 01:22:00,VALID,916.318,VALID,0,VALID,100,VALID,-0.0169808,VALID,20.3318,VALID,355,VALID,1.06441,
2007-07-13, 01:23:00,VALID,916.347,VALID,0,VALID,100,VALID,0,VALID,20.3018,VALID,360,VALID,1.19874,
2007-07-13, 01:24:00,VALID,916.364,VALID,0.2,VALID,100,VALID,-0.0169808,VALID,20.3023,VALID,3,VALID,0.966751,
2007-07-13, 01:25:00,VALID,916.373,VALID,0,VALID,100,VALID,-0.0169808,VALID,20.321,VALID,359,VALID,0.795759,
2007-07-13, 01:26:00,VALID,916.382,VALID,0,VALID,100,VALID,0,VALID,20.3183,VALID,21,VALID,0.954215,
2007-07-13, 01:27:00,VALID,916.395,VALID,0,VALID,100,VALID,0,VALID,20.351,VALID,6,VALID,0.792259,
2007-07-13, 01:28:00,VALID,916.373,VALID,0,VALID,100,VALID,0.0339617,VALID,20.331,VALID,11,VALID,0.687109,
2007-07-13, 01:29:00,VALID,916.364,VALID,0,VALID,100,VALID,-0.0169808,VALID,20.3443,VALID,21,VALID,1.11124,
2007-07-13, 01:30:00,VALID,916.363,VALID,0.2,VALID,100,VALID,0,VALID,20.3438,VALID,7,VALID,0.890262,
2007-07-13, 01:31:00,VALID,916.349,VALID,0,VALID,100,VALID,0,VALID,20.3408,VALID,2,VALID,0.9246,
2007-07-13, 01:32:00,VALID,916.329,VALID,0,VALID,100,VALID,-0.0169808,VALID,20.3081,VALID,11,VALID,1.46189,
2007-07-13, 01:33:00,VALID,916.315,VALID,0,VALID,100,VALID,0,VALID,20.2953,VALID,24,VALID,1.72693,
2007-07-13, 01:34:00,VALID,916.317,VALID,0,VALID,100,VALID,-0.0169808,VALID,20.2569,VALID,25,VALID,1.37271,
2007-07-13, 01:35:00,VALID,916.3,VALID,0,VALID,100,VALID,0.0169808,VALID,20.2559,VALID,27,VALID,1.00091,
2007-07-13, 01:36:00,VALID,916.277,VALID,0,VALID,100,VALID,-0.0339617,VALID,20.2591,VALID,23,VALID,0.920732,
2007-07-13, 01:37:00,VALID,916.246,VALID,0,VALID,100,VALID,0.0169808,VALID,20.2429,VALID,12,VALID,1.07645,
2007-07-13, 01:38:00,VALID,916.213,VALID,0.2,VALID,100,VALID,0.0169808,VALID,20.2264,VALID,25,VALID,1.30376,
2007-07-13, 01:39:00,VALID,916.192,VALID,0,VALID,100,VALID,0.0169808,VALID,20.2429,VALID,32,VALID,1.61607,
2007-07-13, 01:40:00,VALID,916.179,VALID,0,VALID,100,VALID,0,VALID,20.2299,VALID,32,VALID,1.35849,
2007-07-13, 01:41:00,VALID,916.183,VALID,0,VALID,100,VALID,0,VALID,20.2299,VALID,27,VALID,1.03849,
2007-07-13, 01:42:00,VALID,916.188,VALID,0,VALID,100,VALID,0.0169808,VALID,20.2172,VALID,26,VALID,1.0051,
2007-07-13, 01:43:00,VALID,916.212,VALID,0,VALID,100,VALID,0,VALID,20.2042,VALID,37,VALID,0.440549,
2007-07-13, 01:44:00,VALID,916.215,VALID,0,VALID,100,VALID,-0.0169808,VALID,20.2172,VALID,16,VALID,0.574041,
2007-07-13, 01:45:00,VALID,916.23,VALID,0,VALID,100,VALID,0,VALID,20.2042,VALID,11,VALID,0.625401,
2007-07-13, 01:46:00,VALID,916.227,VALID,0,VALID,100,VALID,-0.0169808,VALID,20.2142,VALID,352,VALID,0.865193,
2007-07-13, 01:47:00,VALID,916.227,VALID,0,VALID,100,VALID,0,VALID,20.2105,VALID,360,VALID,0.553234,
2007-07-13, 01:48:00,VALID,916.231,VALID,0,VALID,100,VALID,0,VALID,20.2172,VALID,6,VALID,0.489258,
2007-07-13, 01:49:00,VALID,916.233,VALID,0,VALID,100,VALID,0,VALID,20.2399,VALID,6,VALID,0.414063,
2007-07-13, 01:50:00,VALID,916.233,VALID,0,VALID,100,VALID,-0.0169808,VALID,20.2561,VALID,6,VALID,0.0832698,
2007-07-13, 01:51:00,VALID,916.216,VALID,0,VALID,100,VALID,0,VALID,20.2721,VALID,6,VALID,0.316134,
2007-07-13, 01:52:00,VALID,916.225,VALID,0,VALID,100,VALID,0.0169808,VALID,20.2918,VALID,6,VALID,0.139695,
2007-07-13, 01:53:00,VALID,916.223,VALID,0,VALID,100,VALID,0.0169808,VALID,20.2824,VALID,15,VALID,0.932049,
2007-07-13, 01:54:00,VALID,916.203,VALID,0,VALID,100,VALID,0,VALID,20.2491,VALID,359,VALID,0.706577,
2007-07-13, 01:55:00,VALID,916.189,VALID,0,VALID,100,VALID,0,VALID,20.2434,VALID,19,VALID,0.773438,
2007-07-13, 01:56:00,VALID,916.166,VALID,0,VALID,100,VALID,0,VALID,20.208,VALID,43,VALID,1.4596,
2007-07-13, 01:57:00,VALID,916.169,VALID,0,VALID,100,VALID,-0.0339617,VALID,20.1658,VALID,46,VALID,1.24423,
2007-07-13, 01:58:00,VALID,916.16,VALID,0,VALID,100,VALID,-0.0169808,VALID,20.1688,VALID,29,VALID,1.0608,
2007-07-13, 01:59:00,VALID,916.141,VALID,0,VALID,100,VALID,0,VALID,20.1593,VALID,47,VALID,1.84393,
2007-07-13, 02:00:00,VALID,916.12,VALID,0,VALID,100,VALID,-0.0339617,VALID,20.1363,VALID,51,VALID,1.43377,
2007-07-13, 02:01:00,VALID,916.084,VALID,0,VALID,100,VALID,-0.0169808,VALID,20.1398,VALID,44,VALID,1.09089,
2007-07-13, 02:02:00,VALID,916.053,VALID,0,VALID,100,VALID,-0.0339617,VALID,20.1236,VALID,33,VALID,1.15643,
2007-07-13, 02:03:00,VALID,916.011,VALID,0,VALID,100,VALID,-0.0169808,VALID,20.1066,VALID,16,VALID,1.20149,
2007-07-13, 02:04:00,VALID,915.989,VALID,0,VALID,100,VALID,-0.0339617,VALID,20.1039,VALID,359,VALID,1.13924,
2007-07-13, 02:05:00,VALID,915.975,VALID,0.2,VALID,100,VALID,0,VALID,20.0847,VALID,3,VALID,1.17478,
2007-07-13, 02:06:00,VALID,915.936,VALID,0,VALID,100,VALID,-0.0169808,VALID,20.0814,VALID,348,VALID,1.72282,
2007-07-13, 02:07:00,VALID,915.926,VALID,0,VALID,100,VALID,-0.0339617,VALID,20.0749,VALID,20,VALID,1.71187,
2007-07-13, 02:08:00,VALID,915.908,VALID,0,VALID,100,VALID,-0.0169808,VALID,20.0917,VALID,27,VALID,1.52865,
2007-07-13, 02:09:00,VALID,915.88,VALID,0,VALID,100,VALID,0,VALID,20.0901,VALID,40,VALID,0.669643,
2007-07-13, 02:10:00,VALID,915.851,VALID,0,VALID,100,VALID,0,VALID,20.1199,VALID,36,VALID,0.855097,
2007-07-13, 02:11:00,VALID,915.826,VALID,0,VALID,100,VALID,0,VALID,20.1036,VALID,35,VALID,1.22585,
2007-07-13, 02:12:00,VALID,915.819,VALID,0,VALID,100,VALID,0,VALID,20.1001,VALID,31,VALID,0.90767,
2007-07-13, 02:13:00,VALID,915.807,VALID,0,VALID,100,VALID,-0.0339617,VALID,20.0912,VALID,32,VALID,1.14608,
2007-07-13, 02:14:00,VALID,915.819,VALID,0,VALID,100,VALID,-0.0169808,VALID,20.0712,VALID,30,VALID,1.16235,
2007-07-13, 02:15:00,VALID,915.835,VALID,0,VALID,100,VALID,0.0169808,VALID,20.0777,VALID,32,VALID,1.48601,
2007-07-13, 02:16:00,VALID,915.817,VALID,0,VALID,100,VALID,-0.0169808,VALID,20.0612,VALID,23,VALID,1.21208,
2007-07-13, 02:17:00,VALID,915.813,VALID,0,VALID,100,VALID,0.0169808,VALID,20.0649,VALID,19,VALID,1.23262,
2007-07-13, 02:18:00,VALID,915.809,VALID,0,VALID,100,VALID,-0.0509425,VALID,20.0587,VALID,354,VALID,0.906432,
2007-07-13, 02:19:00,VALID,915.799,VALID,0,VALID,100,VALID,0,VALID,20.0515,VALID,321,VALID,0.685724,
2007-07-13, 02:20:01,VALID,915.804,VALID,0,VALID,100,VALID,0,VALID,20.0712,VALID,316,VALID,0.185268,
2007-07-13, 02:21:00,VALID,915.792,VALID,0,VALID,100,VALID,0,VALID,20.0872,VALID,319,VALID,0.399962,
2007-07-13, 02:22:00,VALID,915.791,VALID,0,VALID,100,VALID,0.0339617,VALID,20.0907,VALID,321,VALID,0.260417,
2007-07-13, 02:23:00,VALID,915.782,VALID,0,VALID,100,VALID,0.0169808,VALID,20.0839,VALID,327,VALID,0.358467,
2007-07-13, 02:24:00,VALID,915.782,VALID,0,VALID,100,VALID,0,VALID,20.0999,VALID,332,VALID,0.274709,
2007-07-13, 02:25:00,VALID,915.795,VALID,0,VALID,100,VALID,0,VALID,20.1131,VALID,332,VALID,0.137536,
2007-07-13, 02:26:01,VALID,915.801,VALID,0,VALID,100,VALID,0.0169808,VALID,20.1228,VALID,333,VALID,0.205611,
2007-07-13, 02:27:00,VALID,915.796,VALID,0,VALID,100,VALID,0.0169808,VALID,20.1426,VALID,360,VALID,0.534624,
2007-07-13, 02:28:00,VALID,915.797,VALID,0,VALID,100,VALID,0.0169808,VALID,20.1625,VALID,16,VALID,0.168786,
2007-07-13, 02:29:00,VALID,915.796,VALID,0,VALID,100,VALID,0,VALID,20.175,VALID,16,VALID,0.00342988,
2007-07-13, 02:30:01,VALID,915.782,VALID,0,VALID,100,VALID,-0.0339617,VALID,20.1912,VALID,16,VALID,0.00109012,
2007-07-13, 02:31:00,VALID,915.766,VALID,0,VALID,100,VALID,0,VALID,20.1685,VALID,8,VALID,0.170015,
2007-07-13, 02:32:00,VALID,915.744,VALID,0,VALID,100,VALID,0,VALID,20.1618,VALID,320,VALID,0.246354,
2007-07-13, 02:33:00,VALID,915.72,VALID,0,VALID,100,VALID,-0.0169808,VALID,20.1526,VALID,320,VALID,0.244665,
2007-07-13, 02:34:00,VALID,915.708,VALID,0,VALID,100,VALID,0.0169808,VALID,20.1391,VALID,320,VALID,0.351753,
2007-07-13, 02:35:01,VALID,915.693,VALID,0,VALID,100,VALID,0,VALID,20.1293,VALID,320,VALID,0.0807292,
2007-07-13, 02:36:00,VALID,915.691,VALID,0,VALID,100,VALID,0.0169808,VALID,20.1228,VALID,320,VALID,0,
2007-07-13, 02:37:01,VALID,915.692,VALID,0,VALID,100,VALID,0,VALID,20.1034,VALID,320,VALID,0.00117188,
2007-07-13, 02:38:00,VALID,915.701,VALID,0,VALID,100,VALID,0.0169808,VALID,20.0907,VALID,320,VALID,0,
2007-07-13, 02:39:01,VALID,915.707,VALID,0,VALID,100,VALID,0,VALID,20.0804,VALID,320,VALID,0.00114329,
2007-07-13, 02:40:00,VALID,915.707,VALID,0,VALID,100,VALID,0,VALID,20.0904,VALID,320,VALID,0,
2007-07-13, 02:41:01,VALID,915.721,VALID,0,VALID,100,VALID,0,VALID,20.0772,VALID,320,VALID,0,
2007-07-13, 02:42:00,VALID,915.731,VALID,0,VALID,100,VALID,0.0339617,VALID,20.0604,VALID,320,VALID,0,
2007-07-13, 02:43:00,VALID,915.74,VALID,0,VALID,100,VALID,0,VALID,20.0545,VALID,320,VALID,0.087936,
2007-07-13, 02:44:00,VALID,915.722,VALID,0,VALID,100,VALID,0.0169808,VALID,20.0482,VALID,320,VALID,0.0800347,
2007-07-13, 02:45:00,VALID,915.734,VALID,0,VALID,100,VALID,-0.101885,VALID,20.0467,VALID,319,VALID,0.150618,
2007-07-13, 02:46:01,VALID,915.734,VALID,0,VALID,100,VALID,-0.118866,VALID,20.027,VALID,318,VALID,0.342578,
2007-07-13, 02:47:00,VALID,915.762,VALID,0,VALID,100,VALID,-0.0679233,VALID,20.017,VALID,314,VALID,0.395833,
2007-07-13, 02:48:00,VALID,915.765,VALID,0,VALID,100,VALID,-0.101885,VALID,20.0011,VALID,310,VALID,0.394116,
2007-07-13, 02:49:00,VALID,915.772,VALID,0,VALID,100,VALID,-0.0679233,VALID,19.9843,VALID,309,VALID,0.264258,
2007-07-13, 02:50:01,VALID,915.77,VALID,0,VALID,100,VALID,-0.118866,VALID,19.9684,VALID,304,VALID,0.332292,
2007-07-13, 02:51:00,VALID,915.777,VALID,0,VALID,100,VALID,-0.0679233,VALID,19.9649,VALID,246,VALID,0.457118,
2007-07-13, 02:52:01,VALID,915.782,VALID,0,VALID,100,VALID,-0.0849042,VALID,19.9586,VALID,209,VALID,0.678013,
2007-07-13, 02:53:00,VALID,915.776,VALID,0,VALID,100,VALID,-0.0849042,VALID,19.9524,VALID,231,VALID,0.600446,
2007-07-13, 02:54:00,VALID,915.779,VALID,0,VALID,100,VALID,-0.0849042,VALID,19.9359,VALID,222,VALID,0.519176,
2007-07-13, 02:55:00,VALID,915.779,VALID,0,VALID,100,VALID,-0.0679233,VALID,19.9264,VALID,241,VALID,0.46875,
2007-07-13, 02:56:00,VALID,915.765,VALID,0,VALID,100,VALID,-0.0849042,VALID,19.9072,VALID,226,VALID,0.534226,
2007-07-13, 02:57:01,VALID,915.74,VALID,0,VALID,100,VALID,-0.101885,VALID,19.884,VALID,213,VALID,0.440789,
2007-07-13, 02:58:00,VALID,915.718,VALID,0,VALID,100,VALID,-0.118866,VALID,19.8775,VALID,216,VALID,0.130664,
2007-07-13, 02:59:00,VALID,915.705,VALID,0,VALID,100,VALID,-0.0849042,VALID,19.8775,VALID,216,VALID,0,
2007-07-13, 03:00:00,VALID,915.679,VALID,0,VALID,100,VALID,-0.0339617,VALID,19.8695,VALID,216,VALID,0.012429,
2007-07-13, 03:01:01,VALID,915.652,VALID,0,VALID,100,VALID,-0.0169808,VALID,19.883,VALID,216,VALID,0.148065,
2007-07-13, 03:02:00,VALID,915.643,VALID,0,VALID,100,VALID,0.0169808,VALID,19.8827,VALID,187,VALID,0.478609,
2007-07-13, 03:03:01,VALID,915.628,VALID,0,VALID,100,VALID,-0.0169808,VALID,19.8862,VALID,169,VALID,0.444568,
2007-07-13, 03:04:00,VALID,915.613,VALID,0,VALID,100,VALID,-0.0339617,VALID,19.86,VALID,138,VALID,0.741425,
2007-07-13, 03:05:00,VALID,915.595,VALID,0,VALID,100,VALID,-0.0169808,VALID,19.8373,VALID,129,VALID,0.575763,
2007-07-13, 03:06:01,VALID,915.59,VALID,0,VALID,100,VALID,0,VALID,19.8411,VALID,99,VALID,0.871003,
2007-07-13, 03:07:00,VALID,915.573,VALID,0,VALID,100,VALID,-0.0169808,VALID,19.8406,VALID,92,VALID,0.853993,
2007-07-13, 03:08:01,VALID,915.575,VALID,0,VALID,100,VALID,-0.0169808,VALID,19.8373,VALID,78,VALID,1.1633,
2007-07-13, 03:09:00,VALID,915.568,VALID,0,VALID,100,VALID,-0.0339617,VALID,19.8278,VALID,78,VALID,1.19404,
2007-07-13, 03:10:01,VALID,915.559,VALID,0,VALID,100,VALID,-0.0339617,VALID,19.8216,VALID,60,VALID,1.25999,
2007-07-13, 03:11:00,VALID,915.569,VALID,0,VALID,100,VALID,-0.0339617,VALID,19.7954,VALID,55,VALID,1.44295,
2007-07-13, 03:12:01,VALID,915.577,VALID,0,VALID,100,VALID,-0.0339617,VALID,19.7724,VALID,48,VALID,1.17759,
2007-07-13, 03:13:01,VALID,915.594,VALID,0,VALID,100,VALID,-0.0339617,VALID,19.7337,VALID,67,VALID,1.22775,
2007-07-13, 03:14:00,VALID,915.61,VALID,0,VALID,100,VALID,-0.0169808,VALID,19.714,VALID,61,VALID,1.0087,
2007-07-13, 03:15:01,VALID,915.622,VALID,0,VALID,100,VALID,-0.0339617,VALID,19.6783,VALID,87,VALID,1.04078,
2007-07-13, 03:16:01,VALID,915.632,VALID,0,VALID,100,VALID,-0.0509425,VALID,19.6591,VALID,86,VALID,0.638849,
2007-07-13, 03:17:01,VALID,915.649,VALID,0,VALID,100,VALID,-0.0339617,VALID,19.6524,VALID,79,VALID,0.659412,
2007-07-13, 03:18:01,VALID,915.656,VALID,0,VALID,100,VALID,0,VALID,19.6329,VALID,92,VALID,0.40346,
2007-07-13, 03:19:01,VALID,915.668,VALID,0,VALID,100,VALID,-0.0339617,VALID,19.6332,VALID,86,VALID,0.139672,
2007-07-13, 03:20:01,VALID,915.674,VALID,0,VALID,100,VALID,-0.0339617,VALID,19.6432,VALID,86,VALID,0,
2007-07-13, 03:21:01,VALID,915.681,VALID,0,VALID,100,VALID,0,VALID,19.6329,VALID,86,VALID,0,
2007-07-13, 03:22:01,VALID,915.692,VALID,0,VALID,100,VALID,0,VALID,19.6329,VALID,86,VALID,0,
2007-07-13, 03:23:00,VALID,915.71,VALID,0,VALID,100,VALID,0,VALID,19.6197,VALID,86,VALID,0,
2007-07-13, 03:24:00,VALID,915.713,VALID,0,VALID,100,VALID,0,VALID,19.6232,VALID,86,VALID,0,
2007-07-13, 03:25:00,VALID,915.701,VALID,0,VALID,100,VALID,0,VALID,19.6167,VALID,86,VALID,0,
2007-07-13, 03:26:00,VALID,915.704,VALID,0,VALID,100,VALID,-0.0169808,VALID,19.6264,VALID,86,VALID,0,
2007-07-13, 03:27:00,VALID,915.705,VALID,0,VALID,100,VALID,0,VALID,19.6427,VALID,86,VALID,0,
2007-07-13, 03:28:00,VALID,915.707,VALID,0,VALID,100,VALID,-0.0169808,VALID,19.6459,VALID,89,VALID,0.280729,
2007-07-13, 03:29:00,VALID,915.722,VALID,0,VALID,100,VALID,-0.0169808,VALID,19.6624,VALID,116,VALID,0.445486,
2007-07-13, 03:30:00,VALID,915.734,VALID,0,VALID,100,VALID,-0.0339617,VALID,19.6491,VALID,139,VALID,0.612043,
2007-07-13, 03:31:00,VALID,915.76,VALID,0,VALID,100,VALID,0,VALID,19.6294,VALID,139,VALID,0.558984,
2007-07-13, 03:32:00,VALID,915.778,VALID,0,VALID,100,VALID,0,VALID,19.6362,VALID,161,VALID,0.738281,
2007-07-13, 03:33:00,VALID,915.771,VALID,0,VALID,100,VALID,-0.0509425,VALID,19.6524,VALID,155,VALID,0.529167,
2007-07-13, 03:34:00,VALID,915.768,VALID,0,VALID,100,VALID,0,VALID,19.6524,VALID,144,VALID,0.32279,
2007-07-13, 03:35:00,VALID,915.787,VALID,0,VALID,100,VALID,0,VALID,19.6589,VALID,105,VALID,0.519817,
2007-07-13, 03:36:00,VALID,915.797,VALID,0,VALID,100,VALID,0,VALID,19.6749,VALID,84,VALID,0.650484,
2007-07-13, 03:37:00,VALID,915.823,VALID,0,VALID,100,VALID,-0.0339617,VALID,19.6783,VALID,80,VALID,0.634766,
2007-07-13, 03:38:00,VALID,915.855,VALID,0,VALID,100,VALID,-0.0679233,VALID,19.6913,VALID,73,VALID,0.554324,
2007-07-13, 03:39:00,VALID,915.872,VALID,0,VALID,100,VALID,-0.0679233,VALID,19.714,VALID,71,VALID,0.423363,
2007-07-13, 03:40:00,VALID,915.898,VALID,0,VALID,100,VALID,-0.0509425,VALID,19.7175,VALID,70,VALID,0.104555,
2007-07-13, 03:41:00,VALID,915.907,VALID,0,VALID,100,VALID,-0.0339617,VALID,19.6981,VALID,70,VALID,0.0543241,
2007-07-13, 03:42:00,VALID,915.929,VALID,0,VALID,100,VALID,-0.0339617,VALID,19.6791,VALID,70,VALID,0.254654,
2007-07-13, 03:43:00,VALID,915.96,VALID,0,VALID,100,VALID,-0.0679233,VALID,19.6721,VALID,24,VALID,0.689024,